Regional Weather Roundup
Issued by NWS Little Rock, AR

Home | Current Version | Previous Version | Text Only | Print | Product List | Glossary Off
Versions: 1 2 3 4 5 6 7 8 9 10 11 12 13 14 15 16 17 18 19 20 21 22 23 24 25 26 27 28 29 30 31

000
ASUS44 KLZK 181405
RWRLZK

WEATHER ROUNDUP FOR ARKANSAS
NATIONAL WEATHER SERVICE LITTLE ROCK AR
800 AM CST SUN FEB 18 2018

NOTE: "FAIR" INDICATES FEW OR NO CLOUDS BELOW 12,000 FEET WITH NO
SIGNIFICANT WEATHER AND/OR OBSTRUCTIONS TO VISIBILITY.

ARZ001-003-010-029-181500-
NORTHWEST ARKANSAS

CITY           SKY/WX    TMP DP  RH WIND       PRES   REMARKS
FAYETTEVILLE   MOSUNNY   30  30 100 E6        30.14F WCI  24
FORT SMITH     CLOUDY    37  37 100 E9        30.20S
HARRISON       MOSUNNY   32  31  96 SE14      30.18F WCI  22
BENTONVILLE    MOSUNNY   33  30  88 SE7       30.16  WCI  27
ROGERS         PTSUNNY   34  31  88 SE10      30.15  WCI  26
SILOAM SPGS    CLOUDY    32  29  88 E8        30.14  WCI  25
HIGHFILL       SUNNY     32  28  86 SE9       30.14F WCI  24
SPRINGDALE     SUNNY     36  28  75 E5        30.16S
$$

ARZ004-005-016-181500-
NORTH CENTRAL ARKANSAS

CITY           SKY/WX    TMP DP  RH WIND       PRES   REMARKS
BATESVILLE     FOG       33  33 100 MISG      30.28  VSB<1/4
MTN HOME       FOG       31  31 100 S6        30.21F VSB 1   WCI  25
$$

ARZ040-041-181500-
WEST CENTRAL ARKANSAS

CITY           SKY/WX    TMP DP  RH WIND       PRES   REMARKS
MENA           MOSUNNY   43  41  93 E5        30.21R
MOUNT IDA      CLOUDY    40  40 100 SE6       30.19S
$$

ARZ009-017-025-026-028-181500-
NORTHEAST ARKANSAS

CITY           SKY/WX    TMP DP  RH WIND       PRES   REMARKS
JONESBORO      FOG       35  35 100 E7        30.29S VSB 1/4 WCI  29
NEWPORT        LGT RAIN  36  36 100 E6        30.28F VSB<1/4
WALNUT RIDGE   FOG       32  31  96 E5        30.29  VSB<1/4 WCI  27
BLYTHEVILLE    FOG       36  32  85 E8        30.30F VSB 1/4
$$

ARZ022-023-033-042-044-181500-
CENTRAL ARKANSAS

CITY           SKY/WX    TMP DP  RH WIND       PRES   REMARKS
LITTLE ROCK    FOG       39  39 100 E8        30.27S VSB 1/16
N LITTLE ROCK    N/A     37  37  99 E10       30.25R
JACKSONVILLE   FOG       39  39 100 E7        30.26R VSB 7/8
SEARCY         FOG       38  38 100 E5        30.29S VSB<1/4
HOT SPRINGS    CLOUDY    42  41  96 E9        30.24R
RUSSELLVILLE   CLOUDY    34  34 100 CALM      30.24F FOG
CLINTON        FOG       30  30 100 CALM      30.27S VSB<1/4
$$

ARZ036-181500-
EAST ARKANSAS

CITY           SKY/WX    TMP DP  RH WIND       PRES   REMARKS
WEST MEMPHIS   FAIR      38  38 100 E10       30.29R
$$

ARZ050-053-066-070-073-181500-
SOUTHWEST ARKANSAS

CITY           SKY/WX    TMP DP  RH WIND       PRES   REMARKS
ARKADELPHIA    CLOUDY    42  42 100 NE5       30.26R
CAMDEN         CLOUDY    43  41  93 NE5       30.23S FOG
TEXARKANA      CLOUDY    45  43  93 E7        30.20S
EL DORADO      CLOUDY    45  45 100 E6        30.22S
DE QUEEN       CLOUDY    45  45 100 E5        30.20S
$$

ARZ056-057-069-181500-
SOUTHEAST ARKANSAS

CITY           SKY/WX    TMP DP  RH WIND       PRES   REMARKS
PINE BLUFF     FAIR      42  39  89 E14       30.25F
STUTTGART      FAIR      41  40  96 E9        30.26
MONTICELLO     CLOUDY    43  41  93 E8        30.24R

$$






USA.gov is the U.S. government's official web portal to all federal, state and local government web resources and services.